THOR ABLESTAR DEB, 124

Orbit data source: Space-Track

THOR ABLESTAR DEB, 124 is space debris in LEO originally from a launch on Thu, 29 Jun 1961 UTC launched from the Air Force Eastern Test Range (AFETR). Debris objects in space refer to the collection of defunct objects orbiting the Earth. Examples of debris include non-operational satellites, rocket bodies, and fragments generated from explosions, collisions, or faulty payload assembly.

Loading next visibility...
Identifier
124, 1961-015J
Orbit
LEO
Country
Flag of USUS
Related business
Manufacturer
Unknown
Mission
Spacecraft
Bus & Motor
Unknown
Mass
Unknown
Launch date (UTC)
1961-06-29 (64 years ago)
Launch vehicle
Unknown
Launch site
Air Force Eastern Test Range (AFETR)
Object type
Payload
Rocket body
Debris
Shape & HBR
Unknown shape, 0.2 m
Radar Cross Section
Small (<0.1 m²)

Expand to show TLE details & history
Last TLE update: 12 hours ago

TLE from 12 hours ago
0 THOR ABLESTAR DEB
1 00124U 61015J   25340.88618258  .00003590  00000-0  12323-2 0  9990
2 00124  66.5464  34.6146 0077716 265.7828  93.4387 14.35525924331326
Epoch: 2025-12-06T21:16Z
TLE epoch observation values (Epoch: 2025-12-06T21:16:06.174Z)
Latitude
-0.00009°
Longitude
-0.31866°
Altitude
779.184 km
Speed
7.463 km/s
True Right ascension
02h 18m 27s
True Declination
0° 00' 00"
Sunlit
Object was in full shadow at epoch
Visualization orbit readout
Latitude
Unknown
Longitude
Unknown
Altitude
Unknown
Speed
Unknown
Apparent Right ascension
Unknown
Apparent Declination
Unknown
Sunlit
N/A
Visualization observer readout
Local Sidereal Time
07:00:05
Azimuth
Unknown
Elevation
Unknown
Doppler factor
Unknown
Orbital elements
Apogee altitude
827.274 km
Perigee altitude
716.142 km
Semi-major axis
7,149.845 km
Eccentricity
0.00777
Inclination
66.5464°
RAAN
34.6146°
Arg. of periapsis
265.7828°
True anomaly
94.3271°
Mean anomaly
93.4387°
Eccentric anomaly
93.88296°
Mean motion
3.59003 °/min
Orbital period
100.28 mins
BSTAR
0.0012323

Documentation

Showing up to 5 results
|